323  
ASUS43 KFGF 222110  
RWRFGF  
PRAIRIE TO PINES WEATHER ROUNDUP  
NATIONAL WEATHER SERVICE EASTERN NORTH DAKOTA/GRAND FORKS ND  
400 PM CDT MON JUL 22 2019  
 
**SATELLITE DATA USED TO AUGMENT SKY COVER AT AUTOMATED STATIONS**  
***** WEATHER ACROSS EASTERN NORTH DAKOTA *****  
 
CITY SKY/WX TMP DP RH WIND PRES REMARKS
 
GRAND FORKS FAIR 81 55 40 NW7 30.23F  
GRAND FRKS AFB FAIR 79 55 42 N9 30.25F  
GRAND FRKS NWS N/A 79 57 46 W6 30.20F  
DEVILS LAKE FAIR 77 54 44 NW7 30.28F  
FARGO FAIR 78 52 40 VRB6 30.26F  
WAHPETON ARPT FAIR 73 48 40 N3 30.28F  

 
 
***** WEATHER ACROSS CENTRAL AND WESTERN NORTH DAKOTA *****  
 
CITY SKY/WX TMP DP RH WIND PRES REMARKS
 
BISMARCK FAIR 77 50 38 E3 30.30F  
MINOT FAIR 80 51 36 S6 30.27F  
JAMESTOWN FAIR 76 57 51 CALM 30.29F  
MINOT AFB FAIR 80 55 41 CALM 30.26S  
GARRISON N/A 78 52 40 S6 30.28F  
WILLISTON FAIR 84 52 33 SE12 30.26F  
DICKINSON FAIR 79 52 38 VRB7G17 30.28F  
HETTINGER FAIR 76 54 46 SE12 30.31S  

 
 
***** OTHER AIRPORT OBSERVATIONS IN OUR AREA *****  
 
CITY SKY/WX TMP DP RH WIND PRES REMARKS
 
WALHALLA FAIR 79 55 44 NW10G17 30.24F  
GRAFTON AIRPOR FAIR 81 54 39 VRB7G16 30.25F  
VALLEY CITY AR FAIR 73 54 49 N7 30.31S  
CANDO FAIR 79 55 44 NW6 30.29F  
CAVALIER APRT FAIR 79 55 44 N10G16 30.23F  
GWINNER PTCLDY 75 54 46 N6 30.29F  
SHEYENNE NWR N/A 77 53 43 NW6 29.95S  
ROLLA MOCLDY 73 57 56 NE5 30.29F  
***** THE ABOVE OBSERVATIONS ARE NON NWS ARE NOT QUALITY  
CONTROLLED AND MAY MIS-REPORT RAIN FOR SNOW...  

 
 
***** WEATHER ACROSS NORTHERN MINNESOTA *****  
 
CITY SKY/WX TMP DP RH WIND PRES REMARKS
 
FLAG ISLAND N/A 77 52 41 W17 30.17F  
WARROAD FAIR 79 59 50 W9 30.21F  
ROSEAU FAIR 79 57 47 W8 30.22F  
HALLOCK FAIR 79 54 41 NW7 30.23F  
THF RVR FALLS FAIR 76 56 49 W8 30.26F  
BAUDETTE FAIR 78 55 44 W14 30.21F  
WASKISH N/A 75 55 50 W10 30.21F  
CROOKSTON FAIR 77 55 47 W6 30.25F  
STEPHEN NDAWN N/A 79 54 41 NW6 N/A  
GREENBUSH NDAW N/A 77 55 47 W7 N/A  

 
***** WEATHER ACROSS CENTRAL AND WEST MINNESOTA *****  
 
CITY SKY/WX TMP DP RH WIND PRES REMARKS
 
FOSSTON FAIR 75 48 38 W7 30.27F  
BEMIDJI FAIR 76 50 39 NW15 30.25F  
PARK RAPIDS FAIR 76 51 41 NW12G21 30.26S  
ELBOW LAKE NOT AVBL  
WADENA PTSUNNY 72 54 53 N6 30.27S  
DETROIT LAKES FAIR 73 50 43 NW6 30.29F  
MOORHEAD FAIR 75 50 41 CALM 30.27F  
FERGUS FALLS FAIR 73 52 46 N8 30.27F  
MORRIS MN FAIR 75 48 38 N9 30.22F  
STAPLES FAIR 75 48 38 NW8 30.25F  

 
***** WEATHER ELSEWHERE ACROSS MINNESOTA *****  
 
CITY SKY/WX TMP DP RH WIND PRES REMARKS
 
DULUTH FAIR 81 51 35 NW14 30.16F  
INTRNTL FALLS FAIR 78 57 48 W14G23 30.17F  
ELY PTSUNNY 73 52 46 NW10G20 30.15S  
CLOQUET FAIR 77 48 36 W14G20 30.17F  
WHEATON NOT AVBL  
BRAINERD FAIR 80 52 37 N12 30.23F  
HIBBING FAIR 76 52 43 NW14G22 30.18S  
ALEXANDRIA FAIR 77 51 40 N6 30.29S  
SAINT CLOUD FAIR 78 49 35 N12 30.23S  
MINNEAPOLIS FAIR 79 51 37 N8 30.20F  

 
 
***** WEATHER ACROSS SOUTH DAKOTA *****  
 
CITY SKY/WX TMP DP RH WIND PRES REMARKS
 
SIOUX FALLS FAIR 78 52 40 N13 30.29S  
BROOKINGS FAIR 73 54 51 N5 30.30F  
WATERTOWN FAIR 75 53 46 N10 30.29F  
HURON FAIR 78 56 46 N6 30.28F  
SISSETON N/A 75 52 44 NW6 30.28S  
ABERDEEN FAIR 78 55 44 N7 30.30F  
MITCHELL FAIR 79 56 45 N3 30.29F  
PIERRE FAIR 79 56 45 NE3 30.28F  
MOBRIDGE FAIR 80 55 42 VRB5 30.27F  
RAPID CITY FAIR 78 57 48 SE13 30.30F  

 
 
***** SOME WEATHER IN NEARBY STATES *****  
 
CITY SKY/WX TMP DP RH WIND PRES REMARKS
 
GLASGOW MT FAIR 87 44 22 SE16G24 30.18F  
GREAT FALLS MT FAIR 87 48 25 NE5 30.15S  
CHEYENNE WY FAIR 74 56 53 S13 30.40R  
SCOTTSBLUFF NE FAIR 81 63 54 E15G22 30.30F  
OMAHA NE FAIR 80 57 45 N14 30.23F  
DES MOINES IA FAIR 78 53 41 N13G24 30.18S  
DAVENPORT IA FAIR 81 56 42 N15G23 30.12S  
CHICAGO IL FAIR 75 49 39 N16G25 30.07S  
EAU CLAIRE WI FAIR 77 49 37 N9G22 30.16S  
LA CROSSE WI FAIR 80 49 33 N15G22 30.15F  

 
 
***** SOME NATIONAL WEATHER *****  
 
CITY SKY/WX TMP DP RH WIND PRES REMARKS
 
LA GUARDIA NY PTSUNNY 87 73 62 VRB7 29.69F HX 94  
RALEIGH NC CLOUDY 94 64 37 SW20G25 29.87F HX 95  
ATLANTA GA PTSUNNY 90 69 50 SW9 29.96F HX 94  
NEW ORLEANS LA PTSUNNY 81 75 82 SW6 29.96F  
OKLAHOMA CITY PTSUNNY 88 62 41 NE15G22 30.11F  
ALBUQUERQUE NM PTSUNNY 88 52 29 SE15G22 30.29F  
SALT LAKE CITY FAIR 99 49 18 VRB3 30.07F HX 96  
LOS ANGELES CA PTSUNNY 75 61 61 W10 29.97F  
BOISE ID FAIR 96 45 17 W8 29.98S HX 92  
SEATTLE WA FAIR 78 51 38 SW7 30.06S  

 
 
*** WEATHER ACROSS MANITOBA...SASKATCHEWAN AND ONTARIO ***  
***ONTARIO***  
 
CITY SKY/WX TMP DP RH WIND PRES REMARKS
 
GERALDTON PTSUNNY 70 50 49 NW14G21 30.00S  
THUNDER BAY PTSUNNY 77 52 41 N10G17 30.04F  
SIOUX LOOKOUT TSTM 64 57 77 W6 30.12R  
TORONTO LGT RAIN 70 61 73 SE8G17 29.85S  
BIG TROUT LK SUNNY 70 43 37 NW10G17 30.01S  
PICKLE LAKE CLOUDY 66 50 55 NW12G23 30.05S  
DRYDEN LGT RAIN 73 57 56 W15G22 30.11F  
KENORA PTSUNNY 77 54 44 W13G22 30.15F  

 
*** MANITOBA***  
 
CITY SKY/WX TMP DP RH WIND PRES REMARKS
 
BRANDON MOSUNNY 79 54 41 NW6G21 30.26F  
DAUPHIN MOSUNNY 79 59 50 NW6 30.22F  
ISLAND LAKE MOSUNNY 73 55 53 VRB2 30.07  
PILOT MOUND NOT AVBL  
THE PAS MOSUNNY 82 59 44 W10 30.15F  
THOMPSON PTSUNNY 84 54 34 NW6 30.04F  
WINNIPEG MOSUNNY 81 55 41 W13G18 30.21F  
LYNN LAKE SUNNY 86 45 23 W9 30.08F  
CHURCHILL PTSUNNY 73 54 49 VRB2 29.99F  
GILLAM CLOUDY 79 57 47 W8 30.01F  

 
***SASKATCHEWAN***  
 
CITY SKY/WX TMP DP RH WIND PRES REMARKS
 
ESTEVAN PTSUNNY 81 54 39 VRB5 30.27F  
KINDERSLEY MOSUNNY 82 59 44 S18G30 30.15F  
LLOYDMINSTER MOSUNNY 77 59 53 S13G21 30.17S  
PRINCE ALBERT PTSUNNY 79 57 47 S9 30.24F  
REGINA MOSUNNY 79 52 38 VRB2 30.26F  
YORKTON SUNNY 79 54 41 SW3 30.26F  
N. BATTLEFORD SUNNY 81 57 44 S9G17 30.21F  
LA RONGE MOSUNNY 82 55 39 SW9 30.17F  
SASKATOON MOSUNNY 81 52 36 S8G18 30.23F  
SWIFT CURRENT SUNNY 81 54 39 S16G24 30.21F  

 
NOTE: THESE ARE AUTOMATED STATIONS WITH LIMITED QUALITY CONTROL  
"FAIR" INDICATES FEW OR NO CLOUDS BELOW 12,000 FEET WITH NO  
SIGNIFICANT WEATHER AND/OR S TO VISIBILITY
.  
SKY/WX - SKY CONDITION AND SIGNIFICANT WEATHER.  
TMP - AIR TEMPERATURE. DP - DEWPOINT TEMPERATURE.  
RH - RELATIVE HUMIDITY. PRES - PRESSURE.  
HX - HEAT INDEX. WCI - WIND CHILL INDEX.  
$  
 
 
CLICK HERE TO GO TO PREVIOUS BULLETINS.

The Nexlab ND Page
The Nexlab MN Page Main Text Page